Location: Augustenthal
(51.7167°N, 10.2833°E)
Time: 09:05:16
(UTC+00:00)

Cosmos 2344 - Pass Details

Date: 18 May 2021
Orbit: 1239 x 3003 km, 63.3° (Epoch: 15 June)

Event Time Altitude Azimuth Distance (km) Brightness Sun altitude
Rises 22:15:03 0° 315° (NW) 4,488 7.5 -17.3°
Reaches altitude 10° 22:17:38 10° 313° (NW) 3,638 6.8 -17.4°
Maximum altitude 22:26:38 74° 231° (SW) 1,889 4.3 -17.7°
Enters shadow 22:35:51 20° 152° (SSE) 3,949 5.5 -18.0°
